Location: Bothwell
(42.3833°S, 147.0000°E)
Time: 23:58:47
(UTC+10:00)

STARS - Visible Passes

Search period start: 01 October 2022 00:00
Search period end: 11 October 2022 01:00
Orbit: 622 x 635 km, 98.2° (Epoch: 01 October)

Date Brightness Start Highest point End Pass type
(mag) Time Alt. Az. Time Alt. Az. Time Alt. Az.
01 Oct ? 22:00:13 13° S 22:00:13 13° S 22:00:45 10° S visible
02 Oct ? 23:20:13 13° SSW 23:20:13 13° SSW 23:20:41 10° SSW visible
03 Oct ? 22:02:54 10° SSE 22:02:54 10° SSE 22:03:02 10° SSE visible
03 Oct ? 23:40:14 11° SSW 23:40:14 11° SSW 23:40:28 10° SSW visible
04 Oct ? 22:22:54 13° SSE 22:22:54 13° SSE 22:23:34 10° SSE visible
05 Oct ? 22:42:53 15° S 22:42:53 15° S 22:43:49 10° S visible
06 Oct ? 23:02:53 16° S 23:02:53 16° S 23:03:52 10° S visible
07 Oct ? 23:22:52 16° SSW 23:22:52 16° SSW 23:23:46 10° SSW visible
08 Oct ? 22:05:31 12° SSE 22:05:31 12° SSE 22:06:12 10° SSE visible
08 Oct ? 23:42:51 14° SSW 23:42:51 14° SSW 23:43:30 10° SSW visible
09 Oct ? 22:25:30 16° SSE 22:25:30 16° SSE 22:26:40 10° SSE visible
10 Oct ? 00:02:50 11° SW 00:02:50 11° SW 00:03:03 10° SW visible
10 Oct ? 22:45:29 19° S 22:45:29 19° S 22:46:53 10° S visible
